Vorticity
5 6 5 6 5 4 3 5 6 3 5 11 11 8 6 7 8 7 7 4 1 3 14 16 9 7 7 5 6 6 5 4 3 5 5 7 6 7 8 7 6 5 6
10 6 3 4 5 5 1 3 4 -1 3 8 11 8 8 10 10 5 6 3 0 3 5 10 15 8 7 5 8 3 4 2 1 3 5 7 6 7 7 7 3 6 7
6 12 16 15 11 5 4 5 4 7 3 6 8 9 9 8 6 4 2 5 2 6 7 8 8 21 7 7 4 2 3 2 5 5 3 5 6 6 7 7 7 7 7
7 -7 -3 0 1 14 9 6 4 3 4 3 8 10 7 9 7 7 6 1 8 3 4 3 14 7 16 4 8 5 5 4 5 3 2 3 4 5 6 7 7 7 6
0 2 1 8 5 4 6 14 9 5 3 6 2 8 12 9 9 2 8 9 14 7 8 7 17 8 10 11 6 8 5 5 4 4 2 6 3 4 5 5 7 6 7
2 -3 6 12 8 5 7 4 8 10 6 4 4 5 12 10 13 9 15 -9 -0 33 -2 6 15 10 14 11 8 7 11 2 0 4 5 4 5 5 5 5 7 8 7
0 1 10 0 6 4 3 4 3 10 7 5 4 5 7 10 10 10 11 34 -10 -5 11 -2 7 3 3 16 9 5 6 10 8 9 4 3 5 5 6 7 8 6 6
-1 -2 4 7 6 6 2 6 5 6 8 7 4 4 4 4 8 8 4 8 1 34 18 28 2 -4 16 8 15 2 6 9 8 5 4 3 5 5 5 7 8 6 5
1 -1 2 5 2 3 5 5 6 7 8 7 8 6 4 5 10 12 9 9 4 4 18 9 -4 6 -4 12 16 14 5 5 5 9 6 3 3 6 5 9 5 4 4
2 -3 1 6 2 2 6 6 6 8 8 10 9 8 5 4 6 7 11 10 6 0 37 -8 -7 6 25 19 17 11 -8 9 6 3 18 0 4 6 6 4 7 5 1
2 -3 5 9 1 5 1 8 6 7 10 12 10 8 8 6 6 7 9 10 9 6 4 19 11 15 11 24 14 9 4 5 9 15 3 3 4 5 7 4 5 4 4
4 -2 10 3 3 4 3 1 6 8 11 14 9 7 10 7 4 7 8 12 12 8 7 15 16 2 2 21 14 10 6 28 6 3 3 5 5 5 4 7 4 -6 -9
3 -1 10 3 2 3 3 -0 1 8 13 14 8 6 10 10 7 5 10 12 18 4 9 13 4 11 -0 17 9 10 5 4 4 3 5 3 9 5 0 6 4 6 11
4 -2 11 2 1 2 2 -1 2 7 11 12 6 7 6 10 5 7 12 10 14 15 11 17 -0 17 2 2 7 15 0 4 2 5 7 6 1 4 -0 11 5 9 24
7 -1 10 5 1 4 0 1 3 5 13 13 5 6 7 10 6 9 12 20 11 7 12 7 15 26 -2 14 11 3 4 4 5 4 3 3 7 4 5 -5 -8 29 16
7 1 7 4 3 4 0 2 2 5 13 13 4 5 7 10 6 10 12 22 13 15 18 10 4 6 0 7 15 10 5 5 4 4 10 2 7 4 -6 -14 9 16 -4
8 2 4 6 4 3 -0 4 1 11 8 15 5 7 3 9 7 9 12 21 -1 -0 29 -14 6 9 13 13 20 6 12 8 3 3 -1 7 6 6 -1 19 26 0 -0
6 4 6 8 6 3 -1 5 -1 14 16 8 6 5 5 9 7 9 16 9 -1 -2 -6 8 -16 13 6 14 17 9 3 4 9 4 5 8 9 29 39 7 1 5 7
9 8 7 6 7 0 5 6 4 12 19 8 6 6 7 9 7 7 13 17 9 -1 -4 28 7 12 7 -3 -11 7 13 7 6 15 10 17 27 6 3 3 4 4 9
9 8 3 5 7 -0 6 7 -1 17 18 7 5 4 9 8 8 4 15 16 7 12 1 6 21 16 -0 9 1 -4 15 15 21 14 10 4 2 4 3 4 4 5 4
12 4 4 8 3 6 4 8 2 12 24 6 5 3 10 12 9 4 10 19 -1 24 -10 -4 11 4 4 10 -2 -3 4 21 12 7 3 9 5 3 4 4 5 4 2
-1 1 5 7 5 4 4 5 0 16 20 7 7 2 8 10 10 9 6 8 11 7 -5 23 36 7 0 9 6 3 12 21 29 2 8 5 3 3 4 3 2 2 -0
11 6 7 9 4 2 5 7 2 19 17 6 10 4 5 9 8 7 6 6 19 3 19 46 15 -11 7 -1 6 -2 9 27 9 4 4 4 3 3 4 3 1 5 3
12 8 10 7 3 4 7 4 4 26 12 4 6 2 6 9 6 7 9 7 14 -6 51 22 -4 29 -6 1 7 5 15 12 0 6 2 4 3 4 4 4 4 3 2
5 9 10 9 4 4 7 3 6 28 11 4 6 7 5 12 5 7 10 10 22 -16 83 11 21 -6 7 -2 18 6 15 6 6 4 3 4 2 2 2 4 3 3 7
9 11 8 -3 4 3 9 2 6 29 9 7 2 7 5 12 6 2 7 12 21 -6 95 -10 14 12 -12 -1 8 1 8 3 7 1 7 3 4 4 3 2 1 3 -4
Height
5836 5835 5835 5834 5833 5832 5831 5830 5828 5826 5824 5822 5820 5818 5817 5815 5814 5813 5813 5813 5813 5813 5813 5814 5814 5815 5816 5818 5820 5822 5824 5826 5827 5829 5831 5833 5834 5836 5837 5837 5838 5840 5841
5835 5834 5833 5832 5830 5829 5828 5827 5826 5824 5822 5820 5817 5815 5814 5812 5811 5810 5810 5810 5810 5810 5811 5812 5812 5812 5811 5812 5815 5817 5819 5822 5824 5826 5828 5831 5832 5833 5834 5836 5836 5837 5839
5832 5831 5830 5828 5827 5826 5824 5824 5823 5822 5820 5818 5815 5812 5811 5810 5808 5807 5807 5807 5807 5806 5807 5808 5809 5810 5810 5810 5811 5813 5816 5818 5821 5823 5826 5828 5830 5832 5833 5834 5835 5837 5838
5830 5829 5828 5826 5824 5822 5821 5820 5819 5818 5817 5815 5814 5811 5807 5807 5806 5805 5804 5803 5802 5802 5801 5802 5804 5803 5805 5808 5810 5812 5813 5815 5818 5821 5824 5826 5828 5829 5831 5833 5834 5835 5836
5827 5826 5825 5823 5820 5819 5817 5816 5815 5814 5813 5812 5810 5809 5807 5805 5804 5802 5798 5799 5793 5793 5794 5797 5797 5799 5802 5804 5807 5810 5812 5813 5815 5818 5822 5823 5824 5826 5828 5830 5832 5833 5835
5823 5822 5821 5820 5818 5816 5814 5812 5811 5810 5809 5808 5807 5806 5804 5802 5801 5798 5795 5800 5792 5778 5784 5789 5790 5796 5797 5799 5802 5805 5809 5812 5813 5814 5818 5820 5822 5823 5825 5827 5829 5830 5832
5819 5819 5818 5817 5816 5814 5811 5810 5808 5807 5806 5804 5803 5802 5801 5798 5798 5795 5793 5792 5791 5786 5783 5785 5790 5792 5794 5796 5798 5800 5803 5807 5810 5811 5815 5817 5819 5821 5822 5824 5825 5828 5830
5815 5815 5814 5812 5811 5811 5808 5807 5806 5804 5802 5800 5799 5797 5797 5795 5794 5790 5789 5788 5787 5785 5783 5786 5786 5787 5789 5792 5794 5798 5800 5802 5805 5808 5812 5814 5816 5818 5820 5823 5824 5827 5828
5813 5811 5810 5809 5806 5805 5804 5803 5802 5800 5798 5797 5794 5794 5792 5791 5789 5787 5785 5783 5782 5780 5779 5782 5783 5783 5785 5786 5789 5792 5796 5798 5802 5805 5808 5811 5813 5816 5818 5821 5822 5825 5827
5809 5808 5807 5805 5803 5801 5800 5799 5798 5795 5794 5792 5791 5789 5788 5787 5785 5784 5782 5780 5779 5778 5776 5776 5781 5781 5780 5781 5784 5790 5792 5795 5798 5802 5806 5808 5810 5813 5815 5817 5820 5822 5824
5803 5803 5802 5801 5799 5797 5796 5795 5794 5791 5790 5788 5786 5785 5784 5781 5779 5779 5778 5775 5776 5775 5774 5774 5776 5778 5776 5778 5781 5786 5790 5792 5795 5798 5803 5806 5807 5810 5813 5815 5817 5820 5822
5797 5797 5797 5796 5795 5793 5791 5791 5789 5787 5785 5784 5782 5780 5778 5777 5776 5775 5772 5771 5771 5771 5771 5771 5773 5775 5776 5777 5779 5784 5786 5789 5792 5795 5798 5802 5805 5807 5810 5812 5815 5817 5819
5790 5791 5791 5790 5789 5787 5787 5786 5784 5782 5779 5779 5778 5776 5773 5773 5772 5771 5769 5768 5768 5768 5767 5768 5770 5771 5773 5776 5776 5780 5783 5787 5789 5794 5797 5800 5802 5804 5807 5809 5812 5814 5815
5782 5784 5785 5784 5784 5783 5782 5781 5779 5776 5775 5773 5772 5771 5769 5769 5768 5766 5764 5764 5765 5763 5763 5765 5766 5769 5770 5773 5775 5777 5781 5784 5787 5792 5794 5796 5798 5801 5803 5806 5808 5809 5811
5775 5776 5777 5779 5779 5777 5777 5775 5773 5771 5769 5768 5767 5766 5765 5764 5763 5761 5758 5760 5760 5760 5760 5762 5764 5766 5768 5770 5772 5774 5778 5782 5784 5788 5790 5793 5795 5797 5800 5803 5805 5805 5806
5767 5768 5769 5772 5772 5771 5770 5769 5767 5765 5763 5763 5762 5761 5760 5759 5759 5757 5755 5754 5756 5756 5755 5757 5761 5762 5765 5767 5769 5772 5775 5779 5782 5786 5788 5790 5792 5794 5796 5798 5799 5801 5805
5757 5759 5761 5764 5764 5765 5764 5763 5761 5759 5756 5757 5756 5755 5755 5754 5754 5753 5752 5751 5752 5751 5749 5753 5755 5757 5761 5764 5766 5768 5772 5775 5779 5782 5784 5786 5788 5791 5793 5795 5796 5800 5803
5748 5751 5753 5755 5756 5757 5757 5756 5755 5753 5750 5750 5751 5750 5749 5749 5749 5749 5748 5748 5748 5747 5746 5750 5751 5754 5758 5761 5763 5765 5769 5771 5775 5778 5781 5782 5783 5786 5789 5792 5795 5799 5802
5741 5745 5747 5748 5748 5749 5749 5749 5749 5746 5744 5744 5744 5745 5743 5744 5745 5744 5744 5742 5743 5743 5740 5744 5748 5750 5755 5758 5759 5763 5766 5768 5771 5773 5777 5778 5780 5784 5787 5790 5793 5796 5798
5734 5736 5738 5741 5742 5742 5741 5741 5741 5740 5737 5738 5738 5739 5739 5738 5740 5738 5738 5738 5738 5739 5738 5738 5742 5746 5750 5753 5755 5758 5760 5763 5766 5769 5773 5776 5779 5782 5785 5788 5790 5793 5794
5725 5728 5731 5733 5734 5734 5734 5733 5732 5731 5730 5732 5732 5732 5733 5734 5734 5733 5733 5732 5732 5733 5733 5729 5738 5741 5745 5748 5751 5752 5757 5759 5762 5766 5770 5773 5777 5780 5783 5785 5787 5788 5790
5715 5718 5722 5724 5725 5726 5725 5725 5725 5722 5722 5724 5725 5726 5725 5726 5729 5727 5726 5726 5726 5726 5727 5726 5729 5734 5739 5742 5746 5748 5751 5754 5757 5764 5766 5771 5773 5776 5779 5781 5784 5785 5786
5705 5709 5712 5714 5716 5717 5716 5717 5717 5714 5714 5717 5718 5718 5718 5719 5719 5720 5719 5718 5718 5718 5717 5717 5720 5726 5733 5736 5741 5745 5747 5751 5756 5759 5763 5766 5769 5771 5774 5777 5779 5781 5782
5695 5699 5702 5705 5707 5708 5708 5709 5709 5706 5707 5709 5710 5711 5712 5713 5713 5712 5711 5709 5709 5708 5706 5708 5714 5718 5724 5730 5735 5740 5743 5745 5752 5755 5759 5761 5764 5766 5769 5772 5774 5776 5777
5686 5689 5692 5695 5698 5700 5700 5701 5699 5698 5699 5701 5703 5705 5706 5708 5707 5706 5704 5702 5700 5699 5696 5701 5707 5712 5718 5723 5728 5734 5738 5743 5747 5749 5752 5755 5758 5761 5764 5767 5768 5769 5772
5675 5680 5683 5686 5688 5690 5691 5693 5691 5691 5692 5694 5696 5698 5700 5701 5700 5700 5698 5695 5692 5689 5687 5691 5697 5703 5710 5716 5722 5728 5733 5737 5742 5744 5746 5749 5752 5755 5759 5761 5763 5764 5766